Regional Weather Roundup
Issued by NWS

Home | Current Version | Previous Version | Text Only | Print | Product List | Glossary On
Versions: 1 2 3 4 5 6 7 8 9 10 11 12 13 14 15 16 17 18 19 20 21 22 23 24 25 26 27 28 29 30 31 32 33 34 35 36 37 38 39 40 41 42 43 44 45 46 47 48 49 50
000
ASUS43 KOAX 230102
RWRNE

WEATHER ROUNDUP FOR NEBRASKA
NATIONAL WEATHER SERVICE OMAHA NE
700 PM CST MON DEC 22 2014

NOTES: SATELLITE DATA IS BEING USED TO AUGMENT CLOUD COVER ABOVE
       12000 FEET.
       "FAIR" INDICATES FEW OR NO CLOUDS BELOW 12,000 FEET WITH NO
       SIGNIFICANT WEATHER AND/OR OBSTRUCTIONS TO VISIBILITY.

  * THESE STATIONS DO NOT REPORT WEATHER SUCH AS RAIN...SNOW OR FOG.

NEZ001>004-019>022-054>056-230200-
NEBRASKA PANHANDLE

CITY           SKY/WX    TMP DP  RH WIND       PRES   REMARKS
SCOTTSBLUFF    PTCLDY    32  24  72 NW20      29.70R WCI  20
ALLIANCE       PTCLDY    35  22  58 NW29G37   29.61S WCI  22
CHADRON        CLOUDY    37  24  59 NW31G43   29.65R WCI  24
SIDNEY         PTCLDY    31  22  69 NW17      29.67R WCI  19
$$

NEZ057>060-069>072-079>082-230200-
SOUTHWEST NEBRASKA

CITY           SKY/WX    TMP DP  RH WIND       PRES   REMARKS
NORTH PLATTE   MOCLDY    37  26  64 NW13      29.56R WCI  29
IMPERIAL       PTCLDY    34  24  67 W15       29.62R WCI  24
MCCOOK         CLEAR     38  24  57 W15       29.59R WCI  29
$$

NEZ005>010-023>029-035>040-094-230200-
NORTH CENTRAL NEBRASKA

CITY           SKY/WX    TMP DP  RH WIND       PRES   REMARKS
VALENTINE      FLURRIES  30  26  85 NW23G32   29.54R WCI  17
AINSWORTH      FLURRIES  31  28  89 NW24G30   29.52R WCI  17
BROKEN BOW     CLOUDY    36  33  89 NW17      29.52S WCI  26
$$

NEZ041-046>049-061>064-073>077-083>087-230200-
SOUTH CENTRAL NEBRASKA

CITY           SKY/WX    TMP DP  RH WIND       PRES   REMARKS
GRAND ISLAND   CLEAR     36  29  75 NW15      29.52R WCI  27
AURORA         PTCLDY    33  29  88 W9        29.51R WCI  25
HASTINGS       CLOUDY    40  29  64 NW16G25   29.53R WCI  31
HEBRON         PTCLDY    41  30  66 NW7       29.53R
KEARNEY *      CLOUDY    39  30  70 NW12      29.55R WCI  32
$$

NEZ011>018-030>034-042>045-230200-
NORTHEAST NEBRASKA

CITY           SKY/WX    TMP DP  RH WIND       PRES   REMARKS
NORFOLK        CLOUDY    37  35  92 NW10      29.46R WCI  30
BLAIR          LGT RAIN  40  37  89 NW10      29.44R WCI  34
COLUMBUS *     CLOUDY    37  32  81 NW10      29.49R WCI  30
TEKAMAH        LGT RAIN  41  38  89 NW13      29.44R
$$

NEZ050>053-065>068-078-088>093-230200-
SOUTHEAST NEBRASKA

CITY           SKY/WX    TMP DP  RH WIND       PRES   REMARKS
LINCOLN        CLOUDY    41  36  82 NW13      29.49R
OMAHA EPPLEY   LGT RAIN  41  39  93 NW15      29.45R FOG
FALLS CITY     LGT RAIN  43  43 100 W14       29.47R
NEBRASKA CITY  DRIZZLE   41  40  97 NW13G21   29.46R
$$

NEZ044-045-051>053-067-230200-
OMAHA AREA

CITY           SKY/WX    TMP DP  RH WIND       PRES   REMARKS
OMAHA EPPLEY   LGT RAIN  41  39  93 NW15      29.45R FOG
BLAIR          LGT RAIN  40  37  89 NW10      29.44R WCI  34
OFFUTT AFB     LGT RAIN  41  38  91 NW13      29.44R
WAHOO          DRIZZLE   39  36  87 NW13      29.46R WCI  32
$$



USA.gov is the U.S. government's official web portal to all federal, state and local government web resources and services.